Starlink 31895

operational
NORAD ID: 59849 Int'l Des: 2024-097 Owner: SPXS Country: US Constellation: starlink
LEOCIRCULAR

About Starlink 31895

Description loading...

Live Position

Loading 3D Globe...

Upcoming Passes

Altitude History

Altitude vs Time

uPlot chart will show altitude changes over time

Two-Line Element Set

1 59849U 24097Q 26034.20133616 -.00002083 00000-0 -66147-4 0 9997
2 59849 43.0019 109.0125 0001185 186.4018 173.6819 15.27594249 96643
Epoch: Feb 3, 2026 • Age: 26 hours

Current Status

Altitude 492.7 km
Velocity 7.62 km/s
Sub-Earth Point -35.55°S, 93.38°E
Launch Date May 23, 2024
Age 1.7 years
Type internet

Technical Details

Classification Payload
Mass 730.00 kg
Dry Mass 700.00 kg
Total Mass 730.00 kg
Length 0.30 m
Diameter 4.10 m
Span 29.00 m
Shape Box + pan
Manufacturer SPXS
Bus Type Starlink V2M
Phase Status In Orbit
Owner/State SPXS/US

Large Constellations

Loading constellations...